Temperature
16 16 17 17 20 21 21 21 21 20 20 19 18 19 21 21 21 20 15 15 15 15 15 15 15 15 15 15 15 16 15 16 16 16 16 16 16 16 15 15 15 15 15 15 15 15 15 15 15
16 16 16 18 21 21 21 21 20 20 19 17 17 18 19 18 16 15 14 15 15 15 15 15 15 15 15 15 15 15 15 15 15 15 15 15 15 15 15 15 15 15 15 15 15 15 15 15 15
15 16 17 20 20 21 21 20 20 18 17 17 17 17 18 17 14 14 14 15 15 15 14 15 15 15 15 15 15 15 15 15 15 15 15 15 15 15 15 15 15 15 15 15 15 15 15 14 14
15 16 17 20 19 19 20 19 18 18 17 16 17 17 15 14 13 14 14 14 14 14 14 14 15 15 15 15 15 15 15 15 15 15 15 15 15 15 15 15 15 15 14 15 14 14 14 14 14
15 17 19 19 19 18 18 17 17 18 18 17 17 17 16 13 13 14 14 14 14 14 14 14 14 14 15 15 15 15 15 15 15 15 15 15 15 15 14 14 14 14 14 14 14 14 14 14 14
15 18 19 19 18 17 17 16 16 17 17 16 16 17 15 13 13 14 14 14 14 14 14 14 14 14 14 14 15 15 15 15 15 15 15 15 14 14 14 14 14 14 14 14 14 14 14 14 14
16 18 18 19 18 17 17 15 16 17 17 15 15 16 14 13 13 13 13 13 13 13 14 14 14 14 14 14 14 14 14 14 14 14 14 14 14 14 14 14 14 14 14 14 14 14 14 14 14
14 17 17 17 17 17 16 14 14 15 15 13 13 15 14 12 12 12 13 13 13 13 13 14 14 14 14 14 14 14 14 14 14 14 14 14 14 14 14 14 14 14 14 14 14 14 13 13 13
13 16 17 17 17 16 15 14 13 12 13 12 12 12 11 12 12 12 12 13 13 13 13 13 13 13 13 14 14 14 14 14 14 14 14 14 14 13 13 13 13 13 13 13 13 13 13 13 13
14 16 16 15 15 15 14 14 13 13 13 13 12 11 11 11 12 12 12 12 13 13 13 13 13 13 13 13 13 13 13 13 13 13 13 13 13 13 13 13 13 13 13 13 13 13 13 13 12
13 14 14 13 12 13 13 13 12 14 14 13 12 11 11 11 11 11 11 11 12 12 13 13 13 13 13 13 13 13 13 13 13 13 13 13 13 13 13 13 12 12 12 13 13 12 12 12 12
13 12 12 12 11 11 12 12 12 12 12 11 11 10 10 10 11 11 11 11 12 12 12 13 13 12 12 13 13 13 13 13 13 13 13 13 13 12 12 12 12 12 12 12 12 12 12 12 12
12 12 11 10 10 11 11 11 11 11 10 10 10 10 10 10 10 10 10 11 11 12 12 12 12 12 12 12 12 12 12 12 12 12 12 12 12 12 12 12 12 12 12 12 12 12 12 11 11
11 11 11 11 11 10 11 11 11 11 10 10 9 9 9 9 9 10 10 10 11 11 11 12 12 12 12 12 12 12 12 12 12 12 12 12 12 12 12 12 12 12 12 12 12 11 11 11 11
10 11 12 11 11 11 11 12 11 10 10 10 10 9 9 9 9 9 9 10 10 11 11 11 11 11 11 11 11 11 12 12 12 12 12 12 12 12 11 11 11 11 11 11 11 11 11 11 11
11 12 12 12 11 10 12 13 13 10 10 10 10 9 9 9 8 9 9 9 10 10 10 11 11 11 11 11 11 11 11 11 11 11 11 11 11 11 11 11 11 11 11 11 11 11 11 11 11
12 13 13 12 11 11 11 13 12 9 10 10 10 9 9 9 8 8 9 9 9 10 10 10 10 10 11 11 11 11 11 11 11 11 11 11 11 11 11 11 11 11 11 10 10 10 10 10 10
12 12 12 12 11 10 11 12 12 10 9 10 10 9 9 9 8 8 8 8 9 9 9 10 10 10 10 10 10 10 10 10 10 10 10 10 10 10 10 10 10 10 10 10 10 10 10 10 10
11 11 11 11 10 10 11 11 11 10 10 10 10 9 9 8 8 7 8 8 8 8 9 9 9 9 9 10 10 9 10 10 10 10 10 10 10 10 10 10 10 10 10 9 9 9 9 10 10
10 10 11 10 9 10 10 11 11 11 10 9 9 9 8 8 7 7 7 7 8 8 8 8 8 9 9 9 9 9 9 9 9 9 9 9 9 9 9 9 9 9 9 9 9 9 9 9 9
9 10 10 10 9 9 9 11 11 11 10 9 9 8 8 7 7 6 6 7 7 7 8 8 8 8 8 9 9 9 8 8 8 8 9 9 9 9 9 9 8 8 8 8 9 8 8 8 8
9 9 9 9 9 10 10 11 12 11 10 10 9 8 7 7 6 6 6 6 6 7 7 7 7 8 8 8 8 8 8 8 8 8 8 8 8 8 8 8 8 8 8 8 8 8 8 8 8
8 8 8 8 9 9 9 9 12 10 10 10 10 8 7 6 6 5 5 5 6 6 6 6 7 7 7 7 7 7 7 7 7 7 7 7 8 8 8 7 8 7 7 7 7 7 7 7 7
7 7 8 8 8 9 9 10 12 11 10 10 9 8 7 6 5 5 5 5 5 5 6 6 6 6 7 7 7 7 7 7 6 7 7 7 7 7 7 7 7 7 7 7 7 7 7 6 6
7 8 9 9 9 10 9 9 11 10 9 8 8 7 6 5 5 4 4 4 5 5 5 5 5 5 6 6 6 6 6 6 6 6 6 6 6 6 6 7 6 6 6 6 6 6 6 6 6
7 8 9 10 10 11 8 9 11 9 7 6 6 6 5 5 5 4 4 4 4 5 5 5 5 5 5 5 5 5 5 6 5 6 6 6 6 6 6 6 6 6 6 6 5 5 5 5 5
7 7 8 8 7 8 10 9 9 8 7 7 6 5 5 5 4 4 4 4 4 4 4 4 4 5 4 4 4 5 5 5 5 5 5 5 5 5 5 5 5 5 5 5 5 4 5 5 4
6 6 7 7 8 10 10 10 10 8 8 7 6 5 5 4 4 3 3 3 4 4 4 4 4 4 4 4 4 4 4 4 4 4 4 4 4 4 4 4 4 4 4 4 4 4 4 4 4
5 5 6 6 7 9 10 10 9 8 7 6 6 5 4 3 3 3 3 3 3 3 3 3 3 4 3 3 3 4 4 3 3 3 3 3 3 4 4 4 3 3 3 3 3 3 3 3 3
5 5 5 6 6 6 8 9 7 6 6 5 5 4 3 3 3 2 2 2 3 3 3 3 3 3 3 3 3 3 3 3 3 3 3 3 3 3 3 3 3 3 3 3 3 3 3 3 3
Wind_Speed
6 4 2 2 4 5 8 5 3 4 3 1 0 2 2 2 1 2 4 3 2 4 6 8 7 8 8 8 10 10 10 11 11 11 11 11 11 11 11 11 12 11 12 12 12 12 13 13 13
4 2 2 3 6 8 7 6 6 4 2 2 2 2 2 1 2 3 2 2 2 5 6 7 8 8 8 9 10 10 10 10 11 11 11 11 11 11 11 11 11 11 11 11 12 12 12 12 12
2 2 2 3 6 9 6 4 4 2 3 2 2 1 1 1 1 1 2 1 3 5 5 7 8 9 9 9 10 10 10 10 11 10 10 10 10 10 10 11 10 10 11 11 11 11 11 12 11
2 2 2 5 8 5 3 2 3 3 3 2 2 3 2 2 2 2 2 2 4 5 5 7 7 9 9 8 9 10 10 10 10 10 10 10 9 9 10 10 10 10 10 10 10 10 10 11 11
1 3 5 6 7 4 2 1 3 4 3 2 2 2 2 2 4 3 2 3 4 4 4 6 6 8 8 8 9 10 10 10 10 10 9 9 9 9 9 10 10 10 9 9 9 9 9 9 9
3 3 6 9 8 4 3 3 4 4 3 1 2 2 2 3 4 3 2 2 3 4 4 5 6 6 8 8 8 9 10 10 10 9 9 9 9 9 9 9 9 9 9 9 9 8 8 8 8
3 4 6 7 7 5 3 3 4 4 4 2 1 2 2 1 3 2 2 2 3 3 3 4 4 5 7 8 8 8 9 10 9 9 9 8 9 9 9 9 8 8 8 8 8 8 7 7 7
1 3 5 6 7 5 3 3 2 4 3 0 1 2 1 1 2 1 2 3 3 2 2 3 4 4 5 7 8 8 8 9 9 8 8 8 8 8 8 8 7 7 8 8 7 7 7 6 7
2 4 7 6 5 4 3 3 1 0 1 1 0 2 3 2 2 2 2 2 2 2 1 1 3 3 3 5 8 8 8 8 8 8 8 7 6 6 6 6 7 7 7 7 7 7 6 6 6
2 6 6 2 2 2 4 3 2 3 2 2 1 2 2 2 2 3 2 1 1 1 1 1 1 2 3 3 5 6 6 6 6 6 6 5 4 4 4 6 6 6 7 7 6 6 6 5 5
2 4 3 1 1 1 3 2 1 3 3 3 3 2 1 2 2 2 2 2 1 1 1 1 1 1 2 2 3 3 4 4 4 4 4 4 4 4 4 4 5 5 5 5 5 5 4 4 3
3 2 2 2 1 1 2 2 2 3 3 2 2 1 2 3 3 2 2 2 1 1 0 1 1 1 1 1 2 3 3 3 3 3 3 3 3 3 3 2 3 3 3 3 4 4 4 4 4
4 2 1 1 1 1 2 3 3 4 4 3 1 1 2 3 3 3 2 2 1 1 1 0 1 1 1 1 1 2 2 3 3 3 3 3 3 3 2 2 2 2 2 3 3 3 3 3 4
3 3 2 2 2 2 3 4 4 5 3 3 2 2 3 3 3 2 2 2 2 2 2 1 1 1 1 1 1 2 2 2 3 2 3 3 3 3 2 2 2 2 2 3 3 3 3 3 3
3 2 2 3 3 2 3 5 6 5 4 4 3 3 3 3 3 3 3 3 3 3 2 2 2 2 2 2 2 2 2 2 2 2 2 2 2 3 3 2 2 2 2 2 3 3 3 3 3
3 4 4 2 3 3 5 8 3 2 4 4 4 3 3 3 3 3 3 3 3 3 3 3 2 3 3 3 2 2 2 2 2 2 2 1 1 3 3 2 2 2 2 2 2 2 3 3 3
4 5 6 3 2 2 6 7 2 1 3 4 4 4 4 3 3 3 3 3 3 3 3 3 3 3 3 3 3 3 3 2 2 2 2 1 1 2 3 2 1 2 2 2 2 2 3 3 3
5 5 5 5 2 4 7 8 5 3 4 5 5 4 4 4 4 3 2 2 2 2 3 3 4 3 4 3 3 2 3 2 2 1 1 1 1 1 2 2 2 2 2 2 3 3 2 3 2
4 5 6 5 2 4 8 10 8 6 6 6 6 5 5 4 3 1 1 1 1 2 3 4 4 4 4 3 3 3 2 2 2 1 2 2 1 1 1 1 2 2 2 2 3 3 3 2 2
5 6 6 4 2 4 7 10 9 7 8 8 7 6 5 4 2 1 1 1 1 1 2 3 4 4 4 3 3 2 2 2 2 1 1 1 1 1 1 0 1 2 2 2 2 2 2 2 2
6 7 6 5 3 4 5 8 8 6 6 6 6 5 4 4 3 2 1 1 1 2 2 1 3 4 4 4 3 3 3 2 1 1 1 1 1 1 1 1 2 2 2 2 3 3 4 3 3
6 5 5 5 4 3 3 5 6 5 5 5 5 4 4 4 3 2 2 2 2 2 1 1 2 2 2 3 4 5 4 3 2 2 2 2 2 2 1 2 2 2 3 3 3 3 3 3 3
3 1 3 4 5 5 5 5 6 3 6 5 4 4 3 3 2 2 2 2 2 2 1 1 1 2 2 2 3 4 3 3 2 2 3 3 3 2 2 2 3 3 3 3 3 3 3 3 3
2 2 2 3 4 6 7 7 6 4 5 3 3 3 3 3 2 2 1 1 1 0 1 1 1 2 2 2 2 3 3 3 3 3 3 3 3 3 3 3 3 3 3 4 4 4 4 4 4
2 3 3 4 5 6 4 6 6 3 3 4 4 3 3 2 2 2 1 1 0 0 1 1 2 1 1 1 1 2 2 3 3 3 4 4 3 3 4 4 4 4 4 4 4 4 4 5 5
5 5 4 4 5 4 4 7 4 1 2 3 3 3 3 2 2 2 1 1 1 1 1 1 2 1 1 1 1 1 2 2 2 3 3 4 3 4 4 4 4 5 5 5 4 4 5 4 5
3 5 3 2 3 5 6 5 5 3 2 2 2 2 2 2 2 2 1 1 1 2 2 2 2 2 1 2 2 2 2 2 2 3 3 3 3 3 4 5 5 5 5 4 4 4 5 5 5
3 2 3 4 3 6 7 7 5 5 4 2 2 2 2 2 2 2 2 1 1 1 1 2 2 2 2 2 2 2 3 3 3 3 3 4 4 3 4 4 4 5 5 5 5 5 5 5 5
3 3 3 3 4 5 6 4 1 3 3 2 2 2 2 3 3 2 2 2 2 2 2 2 2 3 3 3 3 3 3 3 3 3 4 4 4 4 4 4 4 5 5 5 5 5 5 6 6
4 5 5 4 4 4 6 5 2 1 1 2 3 3 3 3 3 3 3 2 2 2 2 3 3 3 4 4 3 4 4 4 4 4 4 4 4 4 4 5 5 5 5 5 6 6 6 7 7
Wind_Direction
329 316 269 227 209 216 224 206 197 174 177 181 188 217 210 209 236 83 71 85 95 141 148 150 152 146 137 136 135 132 129 127 125 123 121 118 115 111 109 106 104 101 97 97 96 96 97 97 95
323 299 228 217 224 220 216 205 199 184 141 136 156 189 173 152 36 60 85 60 118 137 143 148 143 144 138 137 138 134 133 130 128 125 124 121 117 114 113 111 108 104 101 100 99 99 100 100 98
294 277 219 204 221 229 212 173 187 162 151 172 163 183 236 97 47 50 40 76 134 134 135 133 140 142 135 135 138 136 135 134 132 129 126 124 121 118 116 115 113 109 106 104 102 102 103 103 102
228 189 201 219 219 230 240 160 166 165 167 195 184 145 131 44 2 11 44 131 139 132 131 128 136 145 140 139 141 134 136 136 134 132 129 127 124 121 118 117 114 111 110 109 107 106 105 107 105
229 202 200 215 225 224 229 231 192 191 178 174 193 183 152 66 28 40 80 137 139 133 128 133 134 144 143 143 142 140 137 138 137 135 133 130 129 126 121 118 116 115 115 114 111 110 108 112 111
188 207 214 219 215 213 216 217 206 213 197 177 194 198 157 76 41 34 69 128 132 133 127 127 131 144 149 145 144 145 144 139 135 136 135 133 131 129 126 123 120 119 119 118 116 113 111 114 114
208 205 223 220 214 217 213 202 219 223 215 222 255 200 155 73 14 8 75 100 125 130 129 128 140 144 149 144 143 142 140 141 135 133 130 129 128 130 130 128 127 126 125 123 120 117 115 115 118
241 201 213 218 217 220 187 180 230 237 232 298 254 225 226 323 348 55 96 86 86 104 137 141 147 152 157 162 150 147 141 138 135 133 130 129 130 132 129 133 130 130 130 127 125 124 122 117 120
220 214 221 218 216 207 168 180 162 262 170 155 169 336 6 55 110 101 98 88 73 58 64 147 157 161 166 169 162 157 147 140 139 135 132 139 145 145 143 137 133 137 138 135 132 130 130 130 127
203 219 227 236 234 204 174 191 175 179 187 209 227 355 41 99 126 128 125 124 98 74 47 67 148 174 174 167 167 166 159 154 152 147 149 152 148 140 136 131 138 143 144 143 140 140 149 162 151
188 217 208 224 262 227 195 195 196 206 228 247 250 242 164 160 161 177 190 202 194 177 70 54 60 119 160 168 161 161 160 158 154 148 153 153 144 138 139 140 145 152 158 159 156 163 170 177 166
177 196 215 225 224 223 226 215 216 233 253 326 285 214 178 196 205 216 225 231 208 171 123 58 79 73 103 171 161 157 152 148 145 155 155 155 148 150 151 153 154 166 177 182 181 182 181 188 186
196 196 197 232 217 250 219 227 241 260 268 274 256 196 195 213 226 229 233 236 231 207 194 230 90 98 84 95 155 141 148 153 154 156 163 162 159 167 166 161 166 177 185 191 192 195 192 196 196
177 189 219 256 240 241 240 251 245 259 256 237 222 220 226 230 234 237 245 241 241 231 221 205 180 151 124 135 132 144 141 149 151 150 170 173 170 172 172 165 167 181 203 202 201 204 205 208 204
172 197 226 244 245 241 243 251 236 244 232 229 228 230 232 239 238 236 239 241 240 233 216 199 193 172 165 166 137 126 136 131 135 136 154 168 173 177 173 175 178 188 214 212 206 204 213 213 207
192 211 231 226 237 234 232 252 228 226 226 234 237 231 227 232 238 244 242 243 241 228 213 202 190 173 170 170 153 125 116 124 129 132 134 146 162 166 168 175 187 197 203 200 200 206 215 217 212
201 226 236 227 216 227 225 253 242 235 227 237 242 242 238 240 246 247 241 234 234 225 209 200 189 178 168 162 150 129 115 105 112 136 146 179 185 172 155 159 170 193 199 204 201 212 215 222 218
219 227 234 235 214 229 233 249 261 257 250 252 256 254 245 246 254 254 251 240 228 220 203 198 185 179 168 160 149 136 125 107 84 100 111 150 185 179 166 166 173 188 199 208 209 210 219 221 213
230 233 244 252 258 244 247 259 266 260 255 256 256 254 251 256 271 282 278 271 247 221 203 196 180 177 172 168 171 165 159 141 112 76 93 117 118 145 179 185 188 195 203 214 220 213 210 200 186
229 241 256 264 270 250 265 270 268 255 251 252 255 254 253 259 267 287 289 263 230 217 210 196 186 181 176 174 174 174 157 150 142 129 110 94 104 134 167 171 214 214 217 207 207 214 219 203 198
238 241 253 262 283 248 279 269 250 244 246 254 255 254 253 254 257 259 266 262 247 227 207 178 182 179 174 166 158 153 147 143 154 176 183 197 188 181 183 216 223 222 219 224 219 215 214 215 210
247 250 247 250 252 259 263 275 255 249 249 249 251 249 252 254 254 257 264 263 253 246 220 178 147 141 153 166 169 172 178 182 203 212 213 210 206 201 214 233 226 226 228 229 228 229 227 219 215
247 271 242 244 248 260 242 252 262 242 254 254 250 241 245 243 242 249 271 273 262 248 211 182 145 132 131 152 169 184 190 196 203 213 219 218 216 222 223 237 231 227 228 230 229 225 230 228 228
193 195 215 226 237 250 238 234 262 235 244 266 267 253 255 250 252 261 285 278 267 234 171 178 159 134 129 145 173 183 191 192 204 223 223 222 223 226 231 235 239 238 236 230 230 230 229 232 232
191 203 215 212 220 240 202 231 250 247 261 275 283 286 282 257 246 258 277 304 304 274 185 182 174 155 152 156 166 198 213 213 220 241 235 231 230 233 235 237 241 245 247 243 232 230 229 231 233
211 223 234 243 247 252 217 236 242 259 293 288 287 298 304 278 251 258 270 276 262 254 226 210 205 195 190 200 225 241 245 241 244 255 257 241 243 247 248 242 243 246 248 246 239 235 234 237 236
208 221 256 270 274 263 242 250 260 226 259 294 300 313 308 300 290 279 269 268 263 250 232 226 227 227 229 232 240 244 252 258 262 270 274 267 263 264 259 250 244 243 244 244 237 236 233 235 238
267 222 204 216 235 253 252 246 241 222 239 290 321 311 312 313 303 288 281 282 282 268 252 244 236 237 244 247 253 257 253 259 264 269 275 270 270 268 261 257 248 243 243 242 238 239 238 235 237
200 211 233 230 253 256 260 248 243 219 241 264 302 310 311 309 303 288 286 284 286 280 263 250 244 247 250 250 252 255 256 257 258 261 272 272 267 263 255 254 250 244 239 238 236 237 240 239 241
255 234 220 237 242 251 264 262 75 182 277 284 305 317 318 316 309 301 300 295 288 284 275 263 254 250 252 250 250 251 254 252 254 257 266 267 262 261 257 252 248 248 246 241 239 239 241 241 244
Height
1508 1509 1511 1513 1512 1508 1505 1504 1505 1507 1509 1512 1513 1512 1510 1510 1511 1517 1518 1515 1516 1518 1519 1521 1522 1524 1525 1526 1527 1528 1528 1529 1530 1530 1531 1531 1531 1532 1532 1532 1533 1533 1533 1533 1534 1534 1534 1534 1534
1509 1510 1513 1513 1507 1506 1504 1503 1506 1507 1511 1513 1513 1513 1512 1513 1515 1516 1515 1515 1516 1518 1519 1521 1522 1524 1525 1526 1527 1528 1529 1530 1530 1531 1531 1532 1532 1533 1533 1533 1534 1534 1534 1534 1534 1535 1535 1535 1535
1509 1510 1513 1509 1505 1501 1501 1504 1507 1510 1512 1513 1513 1514 1514 1515 1516 1516 1515 1515 1516 1518 1520 1521 1522 1524 1525 1526 1527 1528 1529 1530 1531 1531 1532 1532 1533 1533 1534 1534 1534 1534 1535 1535 1535 1535 1535 1535 1535
1509 1512 1512 1508 1505 1504 1504 1506 1510 1511 1512 1513 1513 1513 1515 1516 1516 1515 1515 1515 1516 1518 1519 1520 1522 1523 1525 1526 1527 1528 1529 1530 1531 1532 1532 1533 1533 1534 1534 1534 1535 1535 1535 1535 1536 1536 1536 1536 1536
1509 1510 1507 1506 1505 1506 1508 1511 1511 1510 1511 1513 1513 1512 1514 1515 1514 1514 1514 1515 1517 1518 1519 1520 1522 1523 1524 1525 1527 1528 1529 1530 1531 1532 1532 1533 1533 1534 1534 1535 1535 1535 1535 1536 1536 1536 1537 1537 1537
1510 1507 1504 1503 1504 1507 1510 1512 1512 1510 1511 1513 1514 1513 1514 1514 1514 1514 1514 1516 1517 1518 1519 1520 1521 1523 1524 1525 1527 1528 1529 1530 1531 1532 1532 1533 1533 1534 1534 1535 1535 1535 1536 1536 1536 1537 1537 1537 1537
1509 1505 1502 1501 1504 1506 1509 1512 1511 1510 1511 1513 1514 1513 1514 1514 1513 1513 1514 1515 1517 1518 1518 1520 1521 1522 1524 1525 1526 1528 1529 1530 1531 1531 1532 1533 1533 1534 1534 1535 1535 1535 1536 1536 1536 1536 1537 1537 1537
1508 1506 1504 1503 1504 1505 1510 1512 1512 1512 1512 1514 1514 1513 1514 1514 1513 1513 1514 1515 1516 1517 1518 1519 1520 1522 1523 1525 1526 1527 1529 1529 1530 1531 1532 1532 1533 1533 1534 1534 1535 1535 1535 1536 1536 1536 1537 1537 1537
1508 1507 1502 1503 1504 1505 1510 1511 1512 1513 1513 1513 1514 1514 1514 1512 1512 1513 1513 1514 1515 1516 1517 1518 1520 1521 1522 1524 1525 1527 1528 1529 1530 1531 1531 1532 1532 1533 1533 1534 1534 1535 1535 1535 1535 1535 1536 1536 1537
1508 1504 1504 1506 1507 1507 1510 1510 1512 1512 1512 1513 1513 1513 1512 1512 1512 1512 1512 1513 1513 1514 1516 1517 1518 1519 1521 1522 1523 1525 1526 1527 1529 1529 1530 1531 1531 1532 1532 1533 1533 1534 1534 1534 1534 1535 1535 1536 1536
1507 1505 1507 1509 1510 1510 1510 1511 1512 1511 1511 1511 1512 1512 1511 1511 1511 1511 1511 1512 1512 1513 1514 1515 1517 1518 1519 1520 1521 1523 1524 1526 1527 1528 1529 1529 1530 1530 1531 1531 1532 1532 1533 1533 1533 1533 1534 1534 1535
1508 1509 1510 1510 1511 1511 1510 1511 1512 1511 1511 1511 1511 1510 1510 1510 1509 1510 1510 1510 1511 1511 1512 1513 1515 1516 1517 1518 1519 1521 1522 1524 1525 1526 1527 1528 1528 1529 1529 1530 1530 1531 1531 1531 1532 1532 1532 1533 1534
1508 1509 1510 1511 1511 1511 1511 1510 1511 1510 1510 1510 1509 1509 1509 1509 1509 1509 1509 1509 1509 1509 1511 1512 1513 1514 1515 1516 1517 1519 1520 1522 1523 1524 1525 1526 1526 1527 1528 1528 1528 1529 1529 1530 1530 1530 1531 1531 1532
1508 1509 1510 1510 1510 1510 1510 1509 1510 1508 1509 1508 1508 1507 1507 1507 1507 1507 1506 1506 1507 1507 1508 1510 1511 1512 1513 1514 1515 1517 1518 1519 1521 1522 1523 1523 1524 1525 1525 1526 1526 1527 1527 1527 1528 1528 1528 1529 1530
1509 1509 1508 1509 1509 1509 1509 1506 1506 1506 1507 1507 1506 1506 1506 1505 1505 1504 1504 1504 1505 1505 1506 1507 1509 1510 1511 1512 1513 1514 1516 1517 1518 1519 1520 1521 1522 1522 1523 1524 1524 1525 1525 1525 1526 1526 1526 1527 1527
1508 1506 1504 1506 1507 1508 1509 1500 1502 1504 1505 1504 1505 1504 1504 1503 1503 1503 1502 1502 1503 1503 1504 1505 1506 1508 1509 1510 1511 1512 1514 1515 1516 1517 1518 1519 1520 1520 1521 1521 1522 1522 1523 1523 1523 1523 1524 1524 1524
1503 1501 1500 1503 1506 1506 1505 1498 1501 1503 1503 1502 1503 1502 1502 1501 1501 1500 1500 1500 1500 1501 1502 1503 1504 1505 1506 1508 1509 1510 1511 1512 1514 1515 1515 1516 1517 1517 1518 1518 1519 1519 1520 1520 1520 1521 1521 1521 1522
1499 1498 1499 1500 1504 1505 1502 1498 1499 1502 1502 1501 1500 1500 1499 1499 1498 1498 1498 1498 1498 1499 1499 1500 1501 1502 1503 1505 1506 1508 1509 1510 1511 1512 1513 1514 1514 1514 1515 1516 1516 1516 1517 1517 1517 1517 1517 1518 1518
1502 1501 1499 1500 1504 1505 1500 1497 1496 1498 1499 1498 1497 1497 1497 1497 1497 1496 1496 1496 1496 1496 1496 1497 1498 1499 1501 1502 1503 1505 1506 1507 1508 1509 1510 1511 1511 1512 1512 1513 1513 1513 1513 1514 1514 1514 1514 1515 1515
1504 1502 1500 1502 1504 1503 1499 1495 1493 1494 1495 1495 1494 1494 1495 1495 1494 1493 1493 1493 1493 1493 1494 1494 1495 1496 1498 1499 1501 1502 1504 1504 1506 1507 1507 1508 1508 1509 1510 1510 1510 1510 1511 1511 1511 1511 1511 1511 1512
1503 1502 1501 1502 1504 1503 1501 1490 1488 1489 1491 1492 1492 1492 1493 1492 1492 1491 1491 1491 1491 1491 1491 1491 1492 1494 1496 1497 1498 1500 1501 1502 1503 1503 1504 1504 1505 1506 1507 1507 1507 1507 1507 1508 1508 1508 1508 1509 1509
1501 1503 1503 1504 1501 1497 1500 1489 1481 1484 1487 1488 1489 1490 1490 1490 1490 1489 1489 1489 1489 1489 1489 1489 1490 1491 1493 1494 1495 1496 1497 1498 1499 1500 1501 1501 1502 1503 1504 1504 1504 1504 1504 1504 1504 1505 1505 1505 1506
1503 1505 1505 1504 1501 1500 1498 1496 1478 1483 1482 1482 1485 1487 1488 1488 1488 1487 1487 1487 1487 1487 1487 1487 1488 1489 1490 1491 1492 1493 1494 1495 1496 1497 1498 1498 1499 1500 1500 1500 1501 1501 1501 1501 1501 1501 1502 1502 1502
1506 1506 1505 1503 1501 1498 1492 1490 1477 1477 1479 1480 1483 1485 1486 1486 1486 1486 1485 1485 1484 1485 1485 1485 1486 1486 1487 1488 1489 1490 1491 1492 1493 1493 1494 1495 1495 1496 1496 1497 1497 1497 1497 1497 1497 1498 1499 1499 1499
1505 1502 1497 1494 1493 1486 1491 1489 1478 1478 1481 1482 1483 1484 1484 1484 1484 1484 1483 1482 1482 1482 1482 1482 1483 1484 1485 1485 1486 1487 1488 1489 1489 1490 1491 1491 1491 1491 1492 1492 1493 1493 1493 1494 1494 1494 1495 1495 1495
1503 1500 1495 1488 1481 1478 1490 1483 1475 1481 1483 1483 1483 1483 1483 1482 1482 1481 1481 1480 1481 1481 1480 1480 1481 1482 1483 1483 1483 1484 1484 1485 1486 1486 1487 1487 1487 1487 1488 1488 1489 1489 1489 1490 1490 1490 1491 1491 1492
1501 1499 1499 1497 1496 1489 1478 1478 1478 1480 1481 1481 1482 1482 1482 1481 1480 1480 1479 1479 1479 1479 1479 1479 1479 1480 1480 1481 1481 1481 1481 1482 1482 1482 1482 1482 1483 1483 1484 1484 1485 1485 1485 1485 1486 1486 1487 1487 1488
1504 1501 1500 1496 1490 1477 1471 1472 1469 1475 1477 1479 1480 1480 1480 1480 1479 1478 1478 1478 1477 1477 1477 1477 1477 1477 1478 1478 1479 1478 1478 1479 1479 1478 1478 1478 1479 1479 1480 1480 1480 1480 1481 1481 1481 1482 1483 1483 1484
1504 1504 1501 1496 1492 1481 1472 1468 1472 1475 1477 1478 1479 1479 1479 1478 1477 1477 1476 1476 1475 1475 1475 1475 1475 1475 1475 1475 1475 1476 1476 1476 1476 1475 1475 1475 1475 1475 1475 1476 1476 1476 1476 1477 1477 1478 1478 1479 1479
1503 1500 1500 1496 1495 1492 1480 1473 1477 1477 1478 1478 1478 1478 1477 1477 1476 1475 1474 1474 1473 1473 1473 1473 1473 1473 1472 1472 1472 1472 1472 1472 1472 1472 1472 1472 1471 1471 1471 1471 1472 1472 1472 1472 1473 1473 1474 1474 1474